Regional Weather Roundup
Issued by NWS

Home | Current Version | Previous Version | Text Only | Print | Product List | Glossary Off
Versions: 1 2 3 4 5 6 7 8 9 10 11 12 13 14 15 16 17 18 19 20 21 22 23 24 25 26 27 28 29 30 31 32 33 34 35 36 37 38 39 40 41 42 43 44 45 46 47 48 49 50

807
ASUS45 KBOI 030510
RWRID

IDAHO REGIONAL WEATHER ROUNDUP
NATIONAL WEATHER SERVICE BOISE ID
1000 PM MST FRI DEC 02 2016

NOTE: "FAIR" INDICATES FEW OR NO CLOUDS BELOW 12000 FEET
WITH NO SIGNIFICANT WEATHER AND/OR OBSTRUCTIONS TO VISIBILITY

IDZ012-014-030600-
SOUTHWEST IDAHO


CITY           SKY/WX    TMP DP  RH WIND       PRES   REMARKS
BOISE          CLOUDY    32  25  75 SE9       30.28F WCI  24
CALDWELL       NOT AVBL
MOUNTAIN HOME  MOCLDY    29  25  85 E7        30.28F WCI  21
$$

IDZ016-017-030600-
SOUTHCENTRAL IDAHO


CITY           SKY/WX    TMP DP  RH WIND       PRES   REMARKS
BURLEY         CLOUDY    28  21  75 SW10      30.25F WCI  19
JEROME         CLOUDY    26  22  84 S3        30.28S
TWIN FALLS     CLOUDY    28  19  69 SW8       30.26F WCI  20
$$

IDZ019>023-030600-
SOUTHEAST IDAHO


CITY           SKY/WX    TMP DP  RH WIND       PRES   REMARKS
IDAHO FALLS    CLOUDY    25  19  78 S7        30.25R WCI  17
POCATELLO      CLOUDY    26  19  74 S8        30.26S WCI  18
REXBURG        CLOUDY    22  18  85 S6        30.25R WCI  14
$$

IDZ006-010-011-018-031-032-030600-
CENTRAL IDAHO MOUNTAINS


CITY           SKY/WX    TMP DP  RH WIND       PRES   REMARKS
MCCALL         CLOUDY    23  19  85 CALM      30.19R
STANLEY          N/A     23  15  71 CALM      30.15F
SALMON         CLOUDY    30  19  64 CALM      30.14F
CHALLIS        CLOUDY    27  19  72 CALM      30.15R
$$

IDZ002-004-006-007-026-030600-
NORTHERN IDAHO


CITY           SKY/WX    TMP DP  RH WIND       PRES   REMARKS
LEWISTON       CLOUDY    42  29  59 S22G28    30.12F
LOWELL           N/A     36  34  92 CALM      30.20F
COEUR D`ALENE  LGT RAIN  33  32  96 S10       30.07S WCI  25
MULLAN PASS    LGT SNOW  22  20  92 SW6       29.96S FOG     WCI  14
$$




USA.gov is the U.S. government's official web portal to all federal, state and local government web resources and services.